sat.trackr.live / text

‹ back to catalog

STARLINK-3730

NORAD 52139 · 2022-029BD

PAYLOAD ACTIVE UNKNOWN

§ Identity

Operator
Country
US
Launch date
2022-03-19
Launch site
AFETR
Launch vehicle
Mass (kg)
RCS (m²)

Purposes: comms

External: N2YO · Heavens-Above · Gunter

§ Orbital elements

Epoch: 2026-09-20T00:21:22.216608Z

Period
93.85 min
Inclination
53.1587°
Eccentricity
0.0001240
Mean motion
15.34390905 rev/d
Perigee alt
461.9 km
Apogee alt
463.6 km
Semi-major
6,840.9 km
B*
2.4457e-6
RAAN
271.6412°
Arg perigee
92.9014°
Mean anomaly
267.2131°
Rev number
25,033

§ Raw data

STARLINK-37301 52139U 22029BD  26263.01484047 -.00000294  00000+0  24457-5 0  99942 52139  53.1587 271.6412 0001240  92.9014 267.2131 15.34390905250330

JSON: /api/v1/satellites/52139 · /tle

For live sub-satellite position, see the globe view (requires WebGL).

§ Visibility from observer

Set your observer location to see the next 7 days of passes ≥ 10°. The values pass through the URL so the page stays shareable.

No JS? Fill the form by hand. The geolocation button needs JavaScript.